Home > Weather > Gelsenkirchen > Past weeks

Flag for Germany Past Weather in Gelsenkirchen, North Rhine-Westphalia, Germany — Yesterday and Last 2 Weeks

Now
63 °F

Drizzle. Broken clouds.


Feels Like: 63 °F
Forecast: 50 / 68 °F
Wind: 12 mph from Southwest

Location: Duesseldorf

Current Time: Jun 27, 2016 at 4:56:33 PM

Latest Report: Jun 27, 2016 at 4:20 PM


Visibility: 3 mi

Pressure: 30.07 "Hg

Humidity: 94%

Dew Point: 61 °F

Location of GelsenkirchenLocation

Past Weather in Gelsenkirchen — Graph

°F

Gelsenkirchen Temperature Yesterday

Maximum temperature yesterday: 68 °F (at 3:20 PM)
Minimum temperature yesterday: 52 °F (at 4:20 AM)
Average temperature yesterday: 59 °F

High & Low Weather Summary for the Past Weeks

 TemperatureHumidityPressure
High91 °F (Jun 23, 3:20 PM)100% (Jun 13, 9:50 PM)30.27 "Hg (Jun 13, 9:50 PM)
Low50 °F (Jun 16, 2:20 AM)44% (Jun 23, 5:20 PM)29.45 "Hg (Jun 14, 6:20 PM)
Average63 °F84%29.90 "Hg
* Reported Jun 12 3:20 PM — Jun 27 3:20 PM, Gelsenkirchen, Weather by CustomWeather, © 2016

Note: Actual official high and low records may vary slightly from our data, if they occured in-between our weather recording intervals... More about our weather records

Advertising

Gelsenkirchen Weather History for the Previous 24 Hours

Scroll right to see more
 ConditionsComfort  
Time TempWeatherWind HumidityBarometerVisibility
3:20 PM
Mon, Jun 27
63 °FDrizzle. Partly sunny.13 mph88%30.07 "HgN/A
2:50 PM63 °FDrizzle. Broken clouds.10 mph88%30.07 "HgN/A
2:20 PM63 °FDrizzle. Broken clouds.13 mph83%30.07 "Hg5 mi
1:50 PM63 °FDrizzle. Broken clouds.14 mph88%30.07 "Hg5 mi
1:20 PM63 °FDrizzle. Partly sunny.15 mph83%30.07 "Hg5 mi
12:50 PM61 °FPartly sunny.12 mph88%30.07 "HgN/A
12:20 PM61 °FDrizzle. Partly sunny.14 mph83%30.07 "HgN/A
11:50 AM63 °FPartly sunny.10 mph77%30.07 "HgN/A
11:20 AM63 °FBroken clouds.14 mph73%30.07 "HgN/A
10:50 AM61 °FBroken clouds.14 mph77%30.07 "HgN/A
10:20 AM61 °FBroken clouds.14 mph77%30.07 "HgN/A
9:50 AM61 °FBroken clouds.14 mph77%30.07 "HgN/A
9:20 AM63 °FPartly sunny.12 mph68%30.07 "HgN/A
8:50 AM63 °FPartly sunny.12 mph73%30.07 "HgN/A
8:20 AM59 °FScattered clouds.13 mph77%30.07 "HgN/A
7:50 AM59 °FScattered clouds.12 mph82%30.07 "HgN/A
7:20 AM57 °FScattered clouds.14 mph82%30.07 "HgN/A
6:50 AM57 °FSunny.10 mph82%30.07 "Hg10 mi
6:20 AM55 °FPassing clouds.9 mph88%30.07 "HgN/A
5:50 AM55 °FPassing clouds.8 mph88%30.07 "HgN/A
5:20 AM55 °FPassing clouds.8 mph88%30.07 "HgN/A
4:50 AM55 °FPassing clouds.8 mph88%30.07 "HgN/A
4:20 AM55 °FPassing clouds.9 mph88%30.07 "HgN/A
3:50 AM55 °FPassing clouds.7 mph88%30.07 "HgN/A
3:20 AM55 °FPassing clouds.8 mph88%30.07 "HgN/A
2:50 AM55 °FPassing clouds.7 mph94%30.07 "HgN/A
2:20 AM55 °FPassing clouds.8 mph88%30.09 "HgN/A
1:50 AM54 °FPassing clouds.8 mph94%30.09 "HgN/A
1:20 AM54 °FPassing clouds.7 mph94%30.07 "HgN/A
12:50 AM54 °FPassing clouds.7 mph94%30.07 "HgN/A
12:20 AM54 °FPassing clouds.7 mph94%30.07 "HgN/A
11:50 PM
Sun, Jun 26
55 °FPassing clouds.8 mph94%30.07 "HgN/A
11:20 PM57 °FPassing clouds.9 mph88%30.07 "HgN/A
10:50 PM57 °FPassing clouds.8 mph88%30.07 "HgN/A
10:20 PM57 °FScattered clouds.8 mph88%30.07 "HgN/A
9:50 PM57 °FScattered clouds.8 mph88%30.07 "HgN/A
9:20 PM59 °FPassing clouds.9 mph82%30.04 "HgN/A
8:50 PM61 °FSprinkles. Scattered clouds.10 mph77%30.04 "HgN/A
8:20 PM63 °FScattered showers. Passing clouds.9 mph73%30.04 "HgN/A
7:50 PM63 °FScattered clouds.8 mph73%30.04 "HgN/A
7:20 PM64 °FScattered clouds.8 mph73%30.04 "HgN/A
6:50 PM64 °FScattered clouds.8 mph73%30.04 "HgN/A
6:20 PM64 °FScattered clouds.6 mph68%30.04 "HgN/A
5:50 PM63 °FScattered clouds.2 mph73%30.04 "HgN/A
5:20 PM61 °FSprinkles. Scattered clouds.2 mph77%30.07 "HgN/A
4:50 PM59 °FScattered showers. Scattered clouds.5 mph82%30.07 "HgN/A
4:20 PM59 °FScattered showers. Scattered clouds.13 mph82%30.07 "HgN/A
Weather by CustomWeather, © 2016

See weather overviewHow to use our weather pages